This is the latest recevied weather packets stored in our database for station/object N6SPP. If no packets are shown the sender has not sent any weather packets the latest 10 day(s).
| Time | Temp. | Humidity | Pressure | Rain* | Wind** | Luminosity | Snow |
|---|---|---|---|---|---|---|---|
| 1778141637 | 15° C | 80% | 1020 hPa | 0 mm | - | 0 W/m² | - |
| 1778141334 | 15° C | 80% | 1019.9 hPa | 0 mm | - | 0 W/m² | - |
| 1778141030 | 15° C | 80% | 1020.1 hPa | 0 mm | - | 0 W/m² | - |
| 1778140726 | 15° C | 80% | 1019.9 hPa | 0 mm | - | 0 W/m² | - |
| 1778140422 | 15.56° C | 79% | 1020 hPa | 0 mm | - | 0 W/m² | - |
| 1778140118 | 15.56° C | 79% | 1020.1 hPa | 0 mm | - | 0 W/m² | - |
| 1778139816 | 16.11° C | 77% | 1020 hPa | 0 mm | - | 0 W/m² | - |
| 1778139513 | 16.11° C | 77% | 1020.1 hPa | 0 mm | - | 0 W/m² | - |
| 1778139209 | 15.56° C | 79% | 1019.8 hPa | 0 mm | - | 0 W/m² | - |
| 1778138907 | 15.56° C | 80% | 1019.8 hPa | 0 mm | - | 0 W/m² | - |
| 1778138604 | 15.56° C | 79% | 1019.9 hPa | 0 mm | - | 0 W/m² | - |
| 1778138301 | 15.56° C | 79% | 1019.9 hPa | 0 mm | - | 0 W/m² | - |
| 1778137999 | 15.56° C | 78% | 1020 hPa | 0 mm | - | 0 W/m² | - |
| 1778137695 | 15.56° C | 78% | 1019.9 hPa | 0 mm | - | 0 W/m² | - |
| 1778137392 | 15.56° C | 79% | 1020 hPa | 0 mm | - | 0 W/m² | - |
| 1778137089 | 16.11° C | 78% | 1019.9 hPa | 0 mm | - | 0 W/m² | - |
| 1778136785 | 16.11° C | 77% | 1019.9 hPa | 0 mm | - | 0 W/m² | - |
| 1778136483 | 16.11° C | 76% | 1020 hPa | 0 mm | - | 0 W/m² | - |
| 1778136181 | 16.67° C | 75% | 1020 hPa | 0 mm | - | 0 W/m² | - |
| 1778135879 | 16.67° C | 75% | 1020 hPa | 0 mm | - | 0 W/m² | - |
| 1778135575 | 17.22° C | 73% | 1020 hPa | 0 mm | - | 0 W/m² | - |
| 1778135272 | 17.78° C | 72% | 1019.8 hPa | 0 mm | - | 0 W/m² | - |
| 1778134969 | 17.78° C | 71% | 1019.6 hPa | 0 mm | - | 0 W/m² | - |
| 1778134667 | 17.22° C | 72% | 1019.9 hPa | 0 mm | - | 0 W/m² | - |
| 1778134365 | 16.67° C | 74% | 1019.7 hPa | 0 mm | - | 0 W/m² | - |
* Rain latest hour (hover to see other rain measurements)
** Current wind speed in m/s (hover to see current wind gust speed)